Powrót do katalogu

SL-16 DEB

AktywnyLEO
NORAD 22496·DEBRIS·🇷🇺 Russia

Wystrzelony Dec 25, 1992 z Baikonur Cosmodrome

Loading…

Następne Przeloty (najbliższe 24 godziny)

TLE

ŚwieżeSource: Space-Track

Epoka: Sep 14, 2026, 12:12 UTC

1 22496U 92093GF  26257.50840015  .00000052  00000-0  65601-4 0  9990
2 22496  71.2130 266.6600 0091780 258.5548 264.5480 13.97916490715301

Śledź SL-16 DEB w czasie rzeczywistym z AllMySat

Download on the App Store